Regional Weather Roundup
Issued by NWS

Home | Current Version | Previous Version | Graphics & Text | Print | Product List | Glossary On
Versions: 1 2 3 4 5 6 7 8 9 10 11 12 13 14 15 16 17 18 19 20 21 22 23 24 25 26 27 28 29 30 31 32 33 34 35 36 37 38 39 40 41 42 43 44 45 46 47 48 49 50
000
ASUS43 KFSD 220410
RWRSD

WEATHER ROUNDUP FOR SOUTH DAKOTA
NATIONAL WEATHER SERVICE SIOUX FALLS SD
1000 PM CST SUN DEC 21 2014

NOTE: "FAIR" INDICATES FEW OR NO CLOUDS BELOW 12,000 FEET WITH NO
SIGNIFICANT WEATHER AND/OR OBSTRUCTIONS TO VISIBILITY.


SDZ001>005-009-010-012>017-220500-
NORTHWEST AND NORTH CENTRAL SOUTH DAKOTA

CITY           SKY/WX    TMP DP  RH WIND       PRES   REMARKS
BUFFALO          N/A     39  36  89 W20       29.37R
FAITH            N/A     38  35  89 W15       29.41R
MOBRIDGE       FOG       29  28  96 SE3       29.41S VSB 1/2
$$

SDZ012>016-024>037-041>051-057-063-072>074-220500-
SOUTHWEST AND SOUTH CENTRAL SOUTH DAKOTA

CITY           SKY/WX    TMP DP  RH WIND       PRES   REMARKS
RAPID CTY ARPT LGT RAIN  41  35  79 NW25G32   29.47R
PIERRE         CLOUDY    27  25  92 NW6       29.41F WCI  20
CUSTER         MOCLDY    33  25  72 W14G20    29.47R WCI  23
ELLSWORTH AFB  MOCLDY    41  34  76 NW24G38   29.46
PHILIP         CLOUDY    38  32  79 W10       29.44R
PINE RIDGE     PTCLDY    36  30  79 NW12      29.49R
SPEARFISH      CLOUDY    37  32  81 W16G24    29.50S
WINNER         CLOUDY    39  31  72 S8        29.43R
$$

SDZ004>011-016>023-039-040-220500-
NORTHEAST SOUTH DAKOTA

CITY           SKY/WX    TMP DP  RH WIND       PRES   REMARKS
ABERDEEN       CLOUDY    36  33  89 S10       29.47S
WATERTOWN      CLOUDY    35  34  96 S16       29.49S FOG     WCI  25
SISSETON         N/A     34  34 100 SE9       29.52R WCI  27
$$

SDZ017-020-022-023-036>040-048>070-220500-
SOUTHEAST SOUTH DAKOTA

CITY           SKY/WX    TMP DP  RH WIND       PRES   REMARKS
SIOUX FALLS    CLOUDY    39  37  92 S21       29.54F
HURON          CLOUDY    36  34  92 S13       29.46S
CHAMBERLAIN    CLOUDY    35  32  89 SW7       29.42S WCI  29
MITCHELL       CLOUDY    37  36  96 S14       29.48S
YANKTON        CLOUDY    39  36  87 S20       29.54S
$$

ABBREVIATIONS USED IN REMARKS
   TC - TEMPERATURE IN CELSIUS
  WCI - WIND CHILL INDEX
   HX - HEAT INDEX
  VSB - VISIBILITY




USA.gov is the U.S. government's official web portal to all federal, state and local government web resources and services.